SQ3KKR-13 Weather Reports


Display with metric or nautical units.
time (UTC)temp
F
wind
direction
speed
MPH
gust
MPH
rain 1hr
in
rain 24hr
in
rain mn
in
humidity
%
barometer
mb
20220925050301 52 94 2.0 4.0 0.00 0.01 0.00 94 1009.6
20220925045501 51 0 0.0 0.0 0.00 0.01 0.00 94 1009.6
20220925044701 52 0 0.0 0.0 0.00 0.01 0.00 95 1009.8
20220925043901 52 360 0.0 1.0 0.00 0.01 0.00 95 1009.9
20220925043101 52 5 0.0 2.0 0.00 0.01 0.00 96 1009.8
20220925042301 51 0 0.0 0.0 0.00 0.01 0.00 96 1010.0
20220925041501 51 45 0.0 1.0 0.00 0.01 0.00 96 1009.8
20220925040701 51 0 0.0 0.0 0.00 0.01 0.00 96 1009.8
20220925035901 51 0 0.0 0.0 0.00 0.01 0.00 95 1009.9
20220925035101 51 0 0.0 0.0 0.00 0.01 0.00 95 1009.7
20220925034301 51 0 0.0 0.0 0.00 0.01 0.00 95 1009.8
20220925033501 51 0 0.0 0.0 0.00 0.01 0.00 95 1009.8
20220925032701 51 0 0.0 0.0 0.00 0.01 0.00 95 1009.9
20220925031901 51 0 0.0 0.0 0.00 0.01 0.00 95 1009.8
20220925031101 51 0 0.0 0.0 0.00 0.01 0.00 96 1009.8
20220925030301 51 0 0.0 0.0 0.00 0.01 0.00 96 1010.1
20220925025501 51 0 0.0 0.0 0.00 0.01 0.00 96 1010.0
20220925024701 51 0 0.0 0.0 0.00 0.01 0.00 95 1009.8
20220925023901 51 270 0.0 1.0 0.00 0.01 0.00 95 1009.9
20220925023101 51 0 0.0 0.0 0.00 0.01 0.00 95 1009.9
20220925022301 51 270 0.0 2.0 0.00 0.01 0.00 95 1009.9
20220925021501 51 180 0.0 1.0 0.00 0.01 0.00 95 1010.0
20220925020701 51 0 0.0 0.0 0.00 0.01 0.00 95 1010.0
20220925015900 51 0 0.0 0.0 0.00 0.01 0.00 95 1010.1
20220925015101 51 0 0.0 0.0 0.00 0.01 0.00 95 1010.1
20220925014300 51 0 0.0 0.0 0.00 0.01 0.00 94 1009.9
20220925013500 51 0 0.0 0.0 0.00 0.01 0.00 94 1010.0
20220925012700 51 45 0.0 1.0 0.00 0.01 0.00 94 1010.1
20220925011900 51 0 0.0 0.0 0.00 0.01 0.00 94 1010.0
20220925011100 51 0 0.0 0.0 0.00 0.01 0.00 94 1010.1
20220925010300 51 0 0.0 0.0 0.00 0.01 0.00 94 1010.0
20220925005500 51 0 0.0 0.0 0.00 0.01 0.00 94 1010.2
20220925004700 51 0 0.0 0.0 0.00 0.01 0.00 94 1010.0
20220925003900 51 0 0.0 0.0 0.00 0.01 0.00 93 1010.1
20220925003100 51 45 0.0 1.0 0.00 0.01 0.00 93 1010.1
20220925002300 51 45 0.0 1.0 0.00 0.01 0.00 93 1010.1
20220925001500 51 45 0.0 1.0 0.00 0.01 0.00 93 1010.1
20220925000700 51 0 0.0 0.0 0.00 0.01 0.00 92 1010.2
20220924235900 51 0 0.0 0.0 0.00 0.01 0.00 92 1010.3
20220924235100 51 0 0.0 0.0 0.00 0.01 0.00 92 1010.1
20220924234300 51 0 0.0 0.0 0.00 0.01 0.00 91 1010.4
20220924233500 51 0 0.0 0.0 0.00 0.01 0.00 91 1010.2
20220924232700 52 0 0.0 0.0 0.00 0.01 0.00 91 1010.3
20220924231900 52 0 0.0 0.0 0.00 0.01 0.00 91 1010.2
20220924231100 52 0 0.0 0.0 0.00 0.01 0.00 91 1010.2
20220924230300 52 0 0.0 0.0 0.00 0.01 0.00 91 1010.3
20220924225500 52 0 0.0 0.0 0.00 0.01 0.00 92 1010.4
20220924224700 53 233 0.0 1.0 0.00 0.01 0.00 92 1010.4
20220924223900 53 243 1.0 1.0 0.00 0.01 0.00 93 1010.4
20220924223100 53 45 0.0 2.0 0.00 0.01 0.00 93 1010.4
20220924222300 53 28 0.0 2.0 0.00 0.01 0.00 94 1010.5
20220924221500 53 5 1.0 2.0 0.00 0.01 0.00 94 1010.5
20220924220700 53 180 0.0 1.0 0.00 0.01 0.00 93 1010.6
20220924215900 53 0 0.0 0.0 0.00 0.01 0.01 93 1010.6
20220924215100 53 0 0.0 0.0 0.00 0.01 0.01 93 1010.5
20220924214300 53 0 0.0 0.0 0.00 0.01 0.01 93 1010.6
20220924213500 53 0 0.0 0.0 0.00 0.01 0.01 92 1010.5
20220924212700 53 0 0.0 0.0 0.00 0.01 0.01 92 1010.6
20220924211900 53 0 0.0 0.0 0.00 0.01 0.01 92 1010.5
20220924211100 53 0 0.0 0.0 0.00 0.01 0.01 92 1010.8
20220924210300 53 0 0.0 0.0 0.00 0.01 0.01 91 1010.5
20220924205500 53 0 0.0 0.0 0.00 0.01 0.01 91 1010.5
20220924204659 53 0 0.0 0.0 0.00 0.01 0.01 91 1010.5
20220924203859 53 0 0.0 0.0 0.00 0.01 0.01 90 1010.7
20220924203059 53 0 0.0 0.0 0.00 0.01 0.01 90 1010.7
20220924202259 53 0 0.0 0.0 0.01 0.01 0.01 90 1011.0
20220924201459 54 45 0.0 1.0 0.01 0.01 0.01 90 1010.7
20220924200659 54 31 0.0 2.0 0.01 0.01 0.01 89 1010.8
20220924195859 54 4 1.0 2.0 0.01 0.01 0.01 89 1010.7
20220924195059 54 360 1.0 2.0 0.01 0.01 0.01 88 1010.8
20220924194259 54 342 0.0 1.0 0.01 0.01 0.01 87 1010.8
20220924193459 54 315 0.0 1.0 0.01 0.01 0.01 86 1010.8
20220924192659 54 0 0.0 0.0 0.00 0.00 0.01 85 1010.9
20220924191859 54 0 0.0 0.0 0.00 0.00 0.00 84 1010.8
20220924191059 54 0 0.0 0.0 0.00 0.00 0.00 81 1010.8
20220924190259 55 0 0.0 0.0 0.00 0.00 0.00 80 1010.7
20220924185459 55 360 0.0 1.0 0.00 0.00 0.00 80 1010.7
20220924184659 55 360 0.0 1.0 0.00 0.00 0.00 79 1010.6
20220924183859 55 360 0.0 1.0 0.00 0.00 0.00 79 1010.6
20220924183059 55 360 0.0 1.0 0.00 0.00 0.00 78 1010.6
20220924182259 55 360 0.0 1.0 0.00 0.00 0.00 78 1010.6
20220924181459 55 0 0.0 0.0 0.00 0.00 0.00 77 1010.5
20220924180659 55 0 0.0 0.0 0.00 0.00 0.00 77 1010.3
20220924175859 55 0 0.0 0.0 0.00 0.00 0.00 77 1010.4
20220924175059 56 0 0.0 0.0 0.00 0.00 0.00 77 1010.3
20220924174259 56 0 0.0 0.0 0.00 0.00 0.00 77 1010.2
20220924173459 56 0 0.0 0.0 0.00 0.00 0.00 76 1010.3
20220924172659 56 0 0.0 0.0 0.00 0.00 0.00 76 1010.2
20220924171859 56 0 0.0 0.0 0.00 0.00 0.00 75 1010.3
20220924171059 57 0 0.0 0.0 0.00 0.00 0.00 74 1010.3
20220924170259 57 0 0.0 0.0 0.00 0.00 0.00 73 1010.2
20220924165459 58 45 0.0 1.0 0.00 0.00 0.00 72 1010.1
20220924164659 58 45 0.0 1.0 0.00 0.00 0.00 71 1010.2
20220924163859 59 45 0.0 1.0 0.00 0.00 0.00 70 1010.1
20220924163059 59 45 0.0 1.0 0.00 0.00 0.00 67 1010.1
20220924162259 60 0 0.0 0.0 0.00 0.00 0.00 65 1010.0
20220924161459 60 90 0.0 1.0 0.00 0.00 0.00 64 1010.1
20220924160659 60 83 0.0 1.0 0.00 0.00 0.00 64 1010.1
20220924155859 61 49 0.0 1.0 0.00 0.00 0.00 63 1010.0
20220924155059 61 45 0.0 1.0 0.00 0.00 0.00 62 1010.0
20220924154259 61 67 0.0 2.0 0.00 0.00 0.00 61 1010.0
20220924153458 62 90 0.0 2.0 0.00 0.00 0.00 60 1010.0
20220924152658 62 56 1.0 2.0 0.00 0.00 0.00 59 1010.0
20220924151858 62 64 1.0 3.0 0.00 0.00 0.00 58 1010.1
20220924151058 63 64 2.0 3.0 0.00 0.00 0.00 59 1010.0
20220924150258 63 87 2.0 3.0 0.00 0.00 0.00 58 1010.1
20220924145458 63 96 2.0 4.0 0.00 0.00 0.00 58 1010.0
20220924144658 64 80 2.0 4.0 0.00 0.00 0.00 52 1010.2
20220924143858 64 77 2.0 4.0 0.00 0.00 0.00 50 1010.1
20220924143058 64 88 2.0 4.0 0.00 0.00 0.00 48 1010.2
20220924142258 65 82 2.0 4.0 0.00 0.00 0.00 50 1010.2
20220924141458 65 70 1.0 2.0 0.00 0.00 0.00 47 1010.3
20220924140658 66 87 1.0 4.0 0.00 0.00 0.00 47 1010.1
20220924135858 66 67 2.0 4.0 0.00 0.00 0.00 46 1010.3
20220924135058 66 64 1.0 3.0 0.00 0.00 0.00 46 1010.2
20220924134258 66 74 2.0 3.0 0.00 0.00 0.00 48 1010.1
20220924133458 66 94 2.0 3.0 0.00 0.00 0.00 46 1010.3
20220924132658 66 102 1.0 2.0 0.00 0.00 0.00 47 1010.3
20220924131858 66 121 2.0 2.0 0.00 0.00 0.00 46 1010.5
20220924131058 65 170 2.0 2.0 0.00 0.00 0.00 49 1010.5
20220924130258 65 119 0.0 2.0 0.00 0.00 0.00 50 1010.3
20220924125458 65 100 1.0 2.0 0.00 0.00 0.00 50 1010.6
20220924124658 65 73 2.0 2.0 0.00 0.00 0.00 50 1010.5
20220924123858 66 88 1.0 4.0 0.00 0.00 0.00 50 1010.5
20220924123058 66 83 1.0 4.0 0.00 0.00 0.00 50 1010.7
20220924122258 67 77 0.0 3.0 0.00 0.00 0.00 49 1010.5
20220924121458 67 80 1.0 4.0 0.00 0.00 0.00 50 1010.9
20220924120658 66 59 2.0 3.0 0.00 0.00 0.00 50 1010.8
20220924115858 66 106 2.0 3.0 0.00 0.00 0.00 50 1010.8
20220924115058 65 73 2.0 4.0 0.00 0.00 0.00 52 1010.8
20220924114258 65 88 2.0 3.0 0.00 0.00 0.00 52 1011.0
20220924113458 65 111 2.0 4.0 0.00 0.00 0.00 52 1010.8
20220924112658 65 111 2.0 3.0 0.00 0.00 0.00 52 1010.9
20220924111858 65 122 2.0 3.0 0.00 0.00 0.00 52 1011.0
20220924111058 66 88 2.0 3.0 0.00 0.00 0.00 51 1011.0
20220924110258 65 82 1.0 4.0 0.00 0.00 0.00 54 1011.0
20220924105458 63 85 1.0 3.0 0.00 0.00 0.00 60 1011.1
20220924104658 62 80 1.0 3.0 0.00 0.00 0.00 61 1011.1
20220924103858 62 81 2.0 3.0 0.00 0.00 0.00 61 1011.0
20220924103058 61 71 2.0 3.0 0.00 0.00 0.00 63 1011.0
20220924102258 60 58 1.0 3.0 0.00 0.00 0.00 63 1011.0
20220924101458 60 85 2.0 3.0 0.00 0.00 0.00 63 1011.1
20220924100658 60 90 2.0 2.0 0.00 0.00 0.00 63 1011.1
20220924095857 60 92 1.0 2.0 0.00 0.00 0.00 63 1011.2
20220924095057 60 74 2.0 2.0 0.00 0.00 0.00 64 1011.1
20220924094257 59 73 0.0 2.0 0.00 0.00 0.00 65 1011.1
20220924093457 58 72 1.0 2.0 0.00 0.00 0.00 68 1011.2
20220924092657 58 83 2.0 2.0 0.00 0.00 0.00 67 1011.2
20220924091857 58 139 1.0 2.0 0.00 0.00 0.00 69 1011.2
20220924091057 58 101 0.0 2.0 0.00 0.00 0.00 70 1011.3
20220924090257 57 58 1.0 2.0 0.00 0.00 0.00 71 1011.3
20220924085457 56 56 0.0 2.0 0.00 0.00 0.00 71 1011.2
20220924084657 56 86 1.0 2.0 0.00 0.00 0.00 72 1011.1
20220924083857 55 74 2.0 2.0 0.00 0.00 0.00 73 1011.3
20220924083057 55 85 1.0 2.0 0.00 0.00 0.00 75 1011.2
20220924082257 54 83 1.0 3.0 0.00 0.00 0.00 77 1011.2
20220924081457 54 71 1.0 2.0 0.00 0.00 0.00 78 1011.1
20220924080657 54 86 1.0 2.0 0.00 0.00 0.00 78 1011.1
20220924075857 53 79 2.0 2.0 0.00 0.00 0.00 78 1011.2
20220924075057 53 82 2.0 2.0 0.00 0.00 0.00 77 1011.1
20220924074257 53 100 2.0 2.0 0.00 0.00 0.00 76 1011.0
20220924073457 53 93 2.0 3.0 0.00 0.00 0.00 76 1011.0
20220924072657 53 84 1.0 3.0 0.00 0.00 0.00 75 1011.1
20220924071857 54 98 1.0 2.0 0.00 0.00 0.00 75 1010.8
20220924071057 54 90 1.0 3.0 0.00 0.00 0.00 74 1011.0
20220924070257 54 89 2.0 3.0 0.00 0.00 0.00 74 1010.9
20220924065457 53 65 1.0 3.0 0.00 0.00 0.00 79 1010.9
20220924064657 52 76 2.0 3.0 0.00 0.00 0.00 82 1010.8
20220924063857 51 90 0.0 1.0 0.00 0.00 0.00 87 1010.8
20220924063057 51 49 0.0 1.0 0.00 0.00 0.00 92 1010.8
20220924062257 49 0 0.0 0.0 0.00 0.00 0.00 94 1011.0
20220924061457 48 0 0.0 0.0 0.00 0.00 0.00 94 1010.7
20220924060657 48 180 0.0 1.0 0.00 0.00 0.00 94 1010.8
20220924055857 47 180 0.0 1.0 0.00 0.00 0.00 94 1010.9
20220924055057 46 0 0.0 0.0 0.00 0.00 0.00 94 1010.7
20220924054257 46 0 0.0 0.0 0.00 0.00 0.00 93 1010.8
20220924053457 45 0 0.0 0.0 0.00 0.00 0.00 97 1010.8
20220924052656 45 0 0.0 0.0 0.00 0.00 0.00 97 1010.8
20220924051857 44 0 0.0 0.0 0.00 0.00 0.00 97 1010.8
20220924051057 44 0 0.0 0.0 0.00 0.00 0.00 97 1010.7